Погода в Томске

Хотите узнать прогноз погоды в Томске? Тогда Вам сюда: Погода в Томске

Поиск расширенной информации на нашем сайте:

Полезная информация:

Новости сайта



02.01.2020
Опубликован Долгосрочный прогноз погоды по городам России и ближнего зарубежья на январь 2020 года.
Карты: Прогноз на январь и февраль 2020 года, Сравнение прогнозируемой аномалии приземной температуры воздуха на январь 2020 года по разным моделям.




Погода в Томске - сегодня

Время (UTC), дата Ветер
(°,м/с) 
Видим.   Явления Облачность Т
(°С)
Тd
(°С)
f(%) Тe
(°С)
Pmin
(гПа)
dP
(гПа)
Po
(мм)
O2
(г/м3)
Тmin Tmax R s Состояние
почвы
00 16.01.22 160 (Ю) 20000 м  слаб. снег  10/8 480 м средняя 
[Sc|As op]
-5.9 -8.5 82 -6  1009.8  2.4  744  307  -13.7    56  равномерный
сухой снег
100% 
03 16.01.22 190 (Ю) 20000 м  {снег}  8/5 300 м средняя 
[Sc|Ac trans]
-8.1 -12.2 72 -8  1013.1  3.1  746  311           
06 16.01.22 200 (Ю) 20000 м    3/0 верхняя 
[Ci fib]
-8.1 -13.6 65 -10  1016  2.8  749  312           
09 16.01.22 140 (ЮВ) 20000 м    10/0 средняя 
[As op]
-6.6 -12.1 65 -6  1016  749  310           
12 16.01.22 130 (ЮВ) 20000 м    10/0 средняя 
[Ac und]
-5.6 -11.6 63 -5  1015.6  -0.3  748  309    -5.6  0.0     
15 16.01.22 050 (СВ) 20000 м    10/0 средняя 
[As op]
-5.4 -10.7 66 -5  1012.4  -3.1  746  308           
18 16.01.22 070 (В) 1000 м  снег  10/10 330 м 
[Frnb|Ns]
-3.3 -4.2 93 -4  1008.1  -4  743  303           
21 16.01.22 тихо ()   20000 м  {снег}  10/10 540 м 
[Sc]
+0.9 -0 94 +1  1006.7  -1.2  742  298           
00 17.01.22 190 (Ю) 20000 м  {снег}  10/10 540 м 
[Sc]
+1.9 +0 87 +3  1007.2  0.6  743  297  -7    53  равномерный
мокрый или
старый снег
100% 
03 17.01.22 200 (Ю) 20000 м    10/4 300 м верхняя 
[St|Ci fib]
+1.7 -1.3 80 +2  1009.3  2.1  744  298           
06 17.01.22 180 (Ю) 20000 м    10/0 верхняя 
[Ci fib]
+1.7 -4.3 64 +2  1010.8  1.4  745  299           
09 17.01.22 200 (Ю) 20000 м    10/0 средняя, верхняя 
[Ac As|Ci fib]
-1.5 -7.8 62 -2  1012.8  1.7  746  303           
12 17.01.22 тихо ()   20000 м    10/0 средняя, верхняя 
[Ac As|Ci fib]
-4.3 -8.7 71 -4  1015.1  2.1  748  307    +2.1       
15 17.01.22 180 (Ю) 20000 м    10/0 верхняя 
[Ci fib]
-6.8 -12.7 63 -6  1017.7  2.4  750  311           
18 17.01.22 тихо ()   20000 м    10/0 верхняя 
[Ci fib]
-10.1 -14.3 71 -10  1018.6  0.7  750  315           
21 17.01.22 тихо ()   20000 м    10/0 верхняя 
[Ci fib]
-11.3 -14.9 75 -11  1020.3  1.6  752  317           
00 18.01.22 тихо ()   20000 м    ясно 
-12.3 -14.9 81 -12  1021.7  1.2  752  319  -12.5      52  равномерный
мокрый или
старый снег
100% 
03 18.01.22 тихо ()   20000 м    3/0 средняя 
[Ac trans]
-11.3 -14.3 78 -11  1023  1.5  754  318           
06 18.01.22 тихо ()   20000 м  слаб. снег  8/4 600 м средняя 
[Sc diur, vesp|As trans]
-8.2 -12.1 73 -8  1023.8  0.9  754  314           
09 18.01.22 тихо ()   20000 м  слаб. снег  9/6 300 м средняя 
[Sc diur, vesp|As op]
-7.9 -11.7 74 -8  1024.5  0.8  755  314           
12 18.01.22 160 (Ю) 20000 м  {снег}  8/0 средняя 
[Ac trans]
-9.4 -13 75 -9  1025.6  0.9  755  316    -6.6  0.0     
15 18.01.22 тихо ()   20000 м    4/0 средняя 
[Ac trans]
-11.8 -14.1 83 -12  1026.2  0.4  756  320           
18 18.01.22 тихо ()   20000 м    10/0 верхняя 
[Ci fib]
-14.3 -15.6 90 -14  1026.5  0.1  756  323           
21 18.01.22 180 (Ю) 20000 м    8/0 верхняя 
[Ci fib]
-12.8 -14.5 87 -13  1026.1  -0.2  756  321           
00 19.01.22 тихо ()   20000 м    ясно 
-15.4 -17.1 87 -15  1025.7  -0.6  755  324  -15.8      52  равномерный
сухой снег
100% 
Время (UTC), дата Ветер
(°,м/с) 
Видим.   Явления Облачность Т
(°С)
Тd
(°С)
f(%) Тe
(°С)
Pmin
(гПа)
dP
(гПа)
Po
(мм)
O2
(г/м3)
Тmin Tmax R s Состояние
почвы

Для получения пояснительной информации подведите курсор к названию столбца.

ПОГОДА в Томске - архив

Всё, что Вы хотите узнать о погоде в Томске - удобно и подробно!

Выберите нужную дату (начиная с 1 января 2019* года) и нажмите кнопку "Найти".
Будут отображены архивные сводки погоды по пункту Томск, начиная с указанной даты.


Отображать данные в формате CSV (для использования в таблицах Excel)


Внимание! Наш архив погоды предназначен исключительно для личного некоммерческого использования в познавательных целях. Если Вам необходимы официальные справки о состоянии погоды (для производственных, юридических, коммерческих и т.п. целей), обращайтесь в органы Росгидромета.

*Примечание: данная дата относится к архиву по метеостанциям СССР (Россия, СНГ, Балтия).
Архив по метеостанциям Зарубежной Европы и Азии (кроме Китая) хранится 10 дней, по другим регионам земного шара (Китай, Африка, Америка, Австралия, Океания) - 1 день.

Томск - район местоположения метеостанции


Название, широта, долгота, высота метеостанции:
Томск 56.5°ш. 84.9°д. 139 м над ур. моря [Российская Федерация]

Дополнительная информация

В oтличие oт бoльшинства пoгoдных сайтoв мы публикуем пoдрoбную метеoинфoрмацию в детальнoм прoфессиoнальнoм фoрмате.

Характеристики температуры и влажнoсти вoздуха измеряются на высoте 2 м в тени вдали oт зданий и деревьев.
Скoрoсть ветра измеряется на высoте 10 м (на урoвне рoста челoвека скoрoсть ветра ниже в 1.5-2 раза). Если метеoстанция нахoдится в гoрoде или в лесу, тo скoрoсть ветра занижена на 2-4 м/с пo сравнению с oткрытым местoм. Скoрoсть ветра над акватoриями крупных рек и oзёр, а также на вершинах хoлмoв на 2-5 м/с выше, чем в oбычных услoвиях.
Атмoсфернoе давление в разных тoчках местнoсти мoжет значительнo oтличаться oт давления на метеoстанции, в зависимoсти oт услoвий рельефа (при пoдъёме на 10 м давление пoнижается примернo на 1 мм рт.ст.).